[[{"header":{"parameterUnit":"m.s-1","parameterCategory":1,"la1":30.2991,"la2":30.254,"lo1":-89.0895,"lo2":-89.0444,"dy":0.0017,"dx":0.0017,"nx":28,"ny":28,"refTime":"2024-06-13T21:00:00:Z","depth":0,"parameterNumber":2,"parameterNumberName":"U-component_of_WINDS"},"data":[0,0,0,0,0,0,0,0,0,0,0,0,0,0,0,0,0,0,0,0,0,0,0,0,0,0,0,0,0,0,0,0,0,0,0,0,0,0,0,0,0,0,0,0,0,0,0,0,0,0,0,0,0,0,0,0,0,0,-0.9457,-0.9457,0,-0.9473,-0.9473,-0.9474,-0.9452,-0.9452,-0.9451,-0.945,-0.9467,-0.9468,-0.9469,0,0,0,0,0,0,0,0,0,0,0,0,0,-0.9407,-0.9408,-0.9457,-0.9457,-0.9457,-0.9473,-0.9473,-0.9474,-0.9452,-0.9452,-0.9451,-0.945,-0.9467,-0.9468,-0.9469,0,0,0,0,0,0,0,0,0,0,0,0,0,-0.9426,-0.9408,-0.9457,-0.9449,-0.9448,-0.9473,-0.9473,-0.9474,-0.9453,-0.9451,-0.945,-0.9449,-0.9466,-0.9468,-0.947,-0.9504,0,0,-0.9475,-0.9476,0,0,0,0,0,0,0,0,-0.9425,-0.9428,-0.945,-0.9449,-0.9449,-0.9459,-0.9462,-0.9484,-0.9453,-0.9451,-0.945,-0.9449,-0.9465,-0.9467,-0.9473,-0.9504,-0.9505,-0.9475,-0.9476,-0.9477,-0.9477,0,0,0,0,0,0,0,-0.9424,-0.9427,-0.9463,-0.945,-0.9449,-0.9444,-0.9445,-0.9466,-0.9464,-0.9451,-0.9449,-0.9452,-0.9465,-0.9471,-0.9473,-0.9505,-0.9475,-0.9477,-0.9478,-0.9478,-0.9565,-0.9566,0,0,0,0,0,0,-0.9424,-0.9426,-0.9463,-0.9464,-0.9434,-0.9446,-0.9447,-0.9457,-0.9464,-0.9464,-0.9453,-0.9451,-0.9469,-0.9471,-0.9474,-0.9513,-0.9477,-0.9479,-0.948,-0.9563,-0.9565,-0.9566,0,0,0,0,0,0,-0.9423,-0.9427,-0.9462,-0.9445,-0.9449,-0.9448,-0.9459,-0.9458,-0.9464,-0.9465,-0.9465,-0.9459,-0.9468,-0.9471,-0.9496,-0.9514,-0.9479,-0.9481,-0.9562,-0.9564,-0.9566,-0.9593,0,0,0,0,0,0,-0.9421,-0.9427,-0.944,-0.9445,-0.945,-0.9485,-0.946,-0.9459,-0.9467,-0.9465,-0.9472,-0.9472,-0.9467,-0.9494,-0.9498,-0.9515,-0.9482,-0.956,-0.9563,-0.9565,-0.9591,-0.9596,-0.96,0,0,0,0,0,-0.942,-0.9447,-0.9441,-0.9445,-0.9466,-0.9486,-0.9488,-0.9483,-0.9469,-0.9482,-0.9482,-0.9471,-0.9511,-0.9496,-0.9501,-0.9519,-0.9559,-0.9562,-0.9565,-0.9589,-0.9595,-0.96,0,0,0,0,0,0,-0.9445,-0.9448,-0.9441,-0.9471,-0.9478,-0.9482,-0.9498,-0.9489,-0.9501,-0.9498,-0.9491,-0.9492,-0.9519,-0.9521,-0.9505,-0.9552,-0.9533,-0.9537,-0.9549,-0.9555,-0.956,-0.9559,-0.9484,0,0,0,0,0,-0.9454,-0.9469,-0.9471,-0.9498,-0.9502,-0.9499,-0.9508,-0.9503,-0.951,-0.9513,-0.9515,-0.9523,-0.9537,-0.9546,-0.9559,-0.9591,-0.9592,-0.9606,-0.9611,-0.9614,-0.9618,-0.9634,-0.964,-0.9575,-0.9575,-0.9575,0,0,-0.9472,-0.9476,-0.9487,-0.9503,-0.9508,-0.9524,-0.9502,-0.952,-0.9532,-0.9516,-0.9539,-0.9541,-0.9549,-0.9577,-0.959,-0.958,-0.9636,-0.9618,-0.9621,-0.9622,-0.9638,-0.9644,-0.9649,-0.9577,-0.9577,-0.9577,0,0,-0.9515,-0.9519,-0.9542,-0.9547,-0.9555,-0.9553,-0.9558,-0.9563,-0.9564,-0.9587,-0.9575,-0.9589,-0.9613,-0.9619,-0.9625,-0.9669,-0.9659,-0.9673,-0.9698,-0.9714,-0.9719,-0.9724,-0.9739,-0.9744,-0.9677,-0.9677,-0.9677,0,-0.9537,-0.9561,-0.9554,-0.9573,-0.958,-0.9566,-0.9588,-0.9594,-0.9605,-0.961,-0.9599,-0.9629,-0.9633,-0.9663,-0.9673,-0.9679,-0.9684,-0.9673,-0.9719,-0.9723,-0.9727,-0.9742,-0.9748,-0.9678,-0.9678,-0.9678,-0.9678,0,-0.9588,-0.9605,-0.9622,-0.9633,-0.9642,-0.9663,-0.9659,-0.9669,-0.9663,-0.9662,-0.9686,-0.969,-0.9703,-0.971,-0.9704,-0.9738,-0.9732,-0.972,-0.9701,-0.9735,-0.9749,-0.9754,-0.9681,-0.968,-0.968,-0.9679,0,0,-0.9648,-0.9654,-0.9661,-0.9665,-0.9672,-0.9685,-0.9704,-0.9717,-0.9726,-0.9734,-0.975,-0.977,-0.9759,-0.9766,-0.9761,-0.9775,-0.9809,-0.9761,-0.9761,-0.977,-0.9846,-0.9854,-0.9861,-0.9802,-0.9803,-0.9804,-0.9845,0,-0.969,-0.9724,-0.9718,-0.975,-0.9765,-0.9751,-0.9768,-0.9774,-0.9774,-0.9786,-0.9786,-0.98,-0.9784,-0.9788,-0.9802,-0.9802,-0.9824,-0.9799,-0.9817,-0.9817,-0.9815,-0.9868,-0.9877,-0.9916,-0.985,-0.9851,-0.9852,0,-0.9744,-0.9754,-0.9788,-0.9792,-0.9798,-0.9813,-0.9824,-0.9836,-0.9842,-0.9841,-0.9848,-0.984,-0.9859,-0.9839,-0.9865,-0.9848,-0.9855,-0.9856,-0.9857,-0.9859,-0.9837,-0.9871,-0.9928,-0.9934,-0.986,-0.9859,-0.9859,0,-0.9783,-0.9805,-0.9828,-0.9833,-0.9838,-0.9849,-0.9851,-0.9856,-0.9864,-0.9873,-0.9878,-0.989,-0.9896,-0.9905,-0.99,-0.9886,-0.9927,-0.9907,-0.9926,-0.9926,-0.9935,-0.9935,-0.9994,-0.994,-0.994,-0.994,-0.994,0,-0.9831,-0.9853,-0.9846,-0.986,-0.9883,-0.9876,-0.9899,-0.99,-0.9904,-0.9918,-0.9907,-0.992,-0.9913,-0.9925,-0.9922,-0.9943,-0.9946,-0.9946,-0.9944,-0.9947,-0.9947,-0.9951,-0.9948,-0.9941,-0.9941,-0.9941,-0.994,0,-0.9879,-0.9876,-0.99,-0.9902,-0.9903,-0.992,-0.9923,-0.9936,-0.9934,-0.9952,-0.9955,-0.9953,-0.9967,-0.9963,-0.9978,-0.9976,-1.0003,-0.9998,-1.0001,-1.0,-1.0019,-1.0017,-1.0083,-1.0091,-1.0032,-1.0033,-1.0033,0,-0.991,-0.9926,-0.993,-0.9938,-0.9942,-0.9955,-0.9963,-0.9956,-0.9965,-0.9972,-0.9984,-0.9997,-1.0007,-1.0031,-1.003,-1.0042,-1.0037,-1.0059,-1.0039,-1.004,-1.0037,-1.0036,-1.0037,-1.0064,-1.0064,-1.0065,-1.0065,0,-0.9964,-0.9962,-0.9973,-0.9984,-0.9993,-1.0001,-1.0009,-1.0016,-1.0009,-1.0019,-1.0034,-1.0041,-1.0057,-1.007,-1.008,-1.0082,-1.0073,-1.0072,-1.0077,-1.0079,-1.008,-1.0079,-1.0012,-1.007,-1.007,-1.0069,-1.0069,-1.0069,-1.0004,-1.0018,-1.0022,-1.0035,-1.004,-1.0046,-1.0059,-1.0058,-1.007,-1.0082,-1.0077,-1.0093,-1.0098,-1.0111,-1.0115,-1.0127,-1.0118,-1.0126,-1.0127,-1.0129,-1.0131,-1.0078,-1.0129,-1.0129,-1.0128,-1.0128,-1.0128,0,-1.0058,-1.006,-1.0072,-1.0082,-1.0092,-1.0082,-1.0089,-1.0098,-1.0112,-1.0118,-1.0128,-1.0143,-1.0156,-1.0156,-1.0167,-1.0177,-1.0173,-1.018,-1.0179,-1.018,-1.0139,-1.0133,-1.0183,-1.0183,-1.0183,-1.0183,-1.0183,-1.0183,-1.0087,-1.0109,-1.0106,-1.013,-1.0132,-1.0147,-1.0152,-1.0158,-1.0162,-1.018,-1.019,-1.019,-1.0193,-1.0205,-1.0215,-1.0215,-1.0219,-1.0229,-1.0227,-1.0188,-1.0183,-1.0178,-1.0172,-1.023,-1.023,-1.0266,-1.0267,-1.0267]},{"header":{"parameterUnit":"m.s-1","parameterCategory":1,"la1":30.2991,"la2":30.254,"lo1":-89.0895,"lo2":-89.0444,"dy":0.0017,"dx":0.0017,"nx":28,"ny":28,"refTime":"2024-06-13T21:00:00:Z","depth":0,"parameterNumber":3,"parameterNumberName":"V-component_of_WINDS"},"data":[0,0,0,0,0,0,0,0,0,0,0,0,0,0,0,0,0,0,0,0,0,0,0,0,0,0,0,0,0,0,0,0,0,0,0,0,0,0,0,0,0,0,0,0,0,0,0,0,0,0,0,0,0,0,0,0,0,0,-3.8159,-3.816,0,-3.8266,-3.8267,-3.8268,-3.8241,-3.8238,-3.8236,-3.8234,-3.834,-3.8345,-3.8349,0,0,0,0,0,0,0,0,0,0,0,0,0,-3.7925,-3.7929,-3.8158,-3.816,-3.8161,-3.8266,-3.8267,-3.8269,-3.8241,-3.8238,-3.8236,-3.8233,-3.8338,-3.8344,-3.835,0,0,0,0,0,0,0,0,0,0,0,0,0,-3.8029,-3.7931,-3.8158,-3.816,-3.8161,-3.8266,-3.8267,-3.8269,-3.8241,-3.8238,-3.8235,-3.8232,-3.8337,-3.8344,-3.8351,-3.8459,0,0,-3.8373,-3.8376,0,0,0,0,0,0,0,0,-3.8023,-3.8037,-3.8158,-3.816,-3.8162,-3.8237,-3.8224,-3.8333,-3.8242,-3.8211,-3.8234,-3.8231,-3.8308,-3.8317,-3.8344,-3.8464,-3.8468,-3.8373,-3.8378,-3.8381,-3.8383,0,0,0,0,0,0,0,-3.8016,-3.8032,-3.8201,-3.816,-3.8162,-3.8154,-3.8165,-3.8244,-3.8276,-3.8213,-3.8212,-3.8225,-3.8308,-3.8337,-3.8347,-3.847,-3.8373,-3.8379,-3.8384,-3.8387,-3.8683,-3.8686,0,0,0,0,0,0,-3.8008,-3.8027,-3.8197,-3.8204,-3.8083,-3.8161,-3.8173,-3.8216,-3.8275,-3.8281,-3.8228,-3.8223,-3.8327,-3.8338,-3.835,-3.8481,-3.8381,-3.8387,-3.8392,-3.8679,-3.8684,-3.8687,0,0,0,0,0,0,-3.8003,-3.8023,-3.8193,-3.8115,-3.8136,-3.8168,-3.8216,-3.822,-3.8249,-3.8286,-3.8291,-3.8252,-3.8325,-3.834,-3.8432,-3.8484,-3.8391,-3.8397,-3.8675,-3.8681,-3.8685,-3.8743,0,0,0,0,0,0,-3.7996,-3.8022,-3.8064,-3.8116,-3.814,-3.8275,-3.8219,-3.8224,-3.8262,-3.8257,-3.831,-3.8316,-3.8323,-3.8422,-3.8439,-3.8492,-3.8403,-3.8671,-3.8678,-3.8684,-3.8737,-3.875,-3.8761,0,0,0,0,0,-3.7988,-3.8075,-3.8066,-3.8087,-3.8194,-3.8278,-3.8292,-3.83,-3.8266,-3.8308,-3.8332,-3.8314,-3.8475,-3.8431,-3.8451,-3.8507,-3.8667,-3.8676,-3.8683,-3.8731,-3.8747,-3.8761,0,0,0,0,0,0,-3.8026,-3.8082,-3.8073,-3.818,-3.8225,-3.8273,-3.8327,-3.8317,-3.8371,-3.8364,-3.8371,-3.8383,-3.8478,-3.8501,-3.8451,-3.8615,-3.8566,-3.8579,-3.8596,-3.8612,-3.8623,-3.8616,-3.8409,0,0,0,0,0,-3.8048,-3.8113,-3.8157,-3.8246,-3.827,-3.8294,-3.8331,-3.8334,-3.838,-3.8399,-3.8429,-3.8473,-3.8534,-3.8574,-3.8632,-3.874,-3.8751,-3.8788,-3.88,-3.881,-3.882,-3.888,-3.8897,-3.8714,-3.8714,-3.8713,0,0,-3.8092,-3.813,-3.817,-3.8255,-3.829,-3.8356,-3.8311,-3.8382,-3.8431,-3.8409,-3.8499,-3.8522,-3.8572,-3.8673,-3.8719,-3.8695,-3.8873,-3.882,-3.8827,-3.8833,-3.889,-3.8907,-3.8922,-3.8719,-3.8718,-3.8717,0,0,-3.8206,-3.8241,-3.832,-3.8357,-3.8411,-3.8427,-3.8446,-3.8496,-3.8512,-3.8602,-3.8587,-3.8644,-3.8749,-3.8785,-3.8817,-3.8945,-3.8931,-3.8963,-3.9027,-3.9085,-3.9099,-3.9112,-3.9158,-3.9175,-3.8974,-3.8974,-3.8974,0,-3.8253,-3.8353,-3.8362,-3.8435,-3.8473,-3.8458,-3.8537,-3.8572,-3.8641,-3.8667,-3.864,-3.8772,-3.8804,-3.8913,-3.8945,-3.8971,-3.8992,-3.8958,-3.9097,-3.911,-3.9122,-3.9166,-3.9183,-3.8978,-3.8977,-3.8977,-3.8977,0,-3.8409,-3.8479,-3.8536,-3.8606,-3.865,-3.8726,-3.8745,-3.8788,-3.8786,-3.8805,-3.8897,-3.8935,-3.9001,-3.9026,-3.9025,-3.9136,-3.912,-3.9095,-3.9047,-3.9143,-3.9184,-3.9201,-3.8983,-3.8982,-3.8981,-3.898,0,0,-3.8551,-3.8625,-3.8646,-3.8678,-3.8737,-3.879,-3.8865,-3.893,-3.8968,-3.9016,-3.9078,-3.9167,-3.9145,-3.9181,-3.9184,-3.9234,-3.9334,-3.9203,-3.9204,-3.9227,-3.9458,-3.9478,-3.9497,-3.9324,-3.9327,-3.933,-3.9455,0,-3.8671,-3.8805,-3.8815,-3.8935,-3.9,-3.8986,-3.9051,-3.9093,-3.9112,-3.9168,-3.9188,-3.9252,-3.9217,-3.9239,-3.9288,-3.9311,-3.9381,-3.9302,-3.9382,-3.9385,-3.9371,-3.9519,-3.954,-3.9656,-3.9471,-3.9474,-3.9476,0,-3.8829,-3.8885,-3.9012,-3.9062,-3.909,-3.9148,-3.9209,-3.9264,-3.9311,-3.9321,-3.9362,-3.9358,-3.9433,-3.9382,-3.9486,-3.9432,-3.9465,-3.9481,-3.9486,-3.9495,-3.9437,-3.9532,-3.9693,-3.971,-3.9501,-3.9499,-3.9497,0,-3.8921,-3.9027,-3.9117,-3.9145,-3.9205,-3.9247,-3.9274,-3.9318,-3.9357,-3.941,-3.9435,-3.9495,-3.9528,-3.9574,-3.9586,-3.9547,-3.969,-3.9639,-3.97,-3.97,-3.9732,-3.973,-3.9901,-3.9751,-3.9751,-3.9751,-3.975,0,-3.9055,-3.9134,-3.916,-3.9215,-3.9303,-3.9312,-3.9398,-3.9422,-3.9461,-3.952,-3.9511,-3.9566,-3.9578,-3.9635,-3.9644,-3.9729,-3.9744,-3.9753,-3.9755,-3.9755,-3.9754,-3.9778,-3.977,-3.9755,-3.9754,-3.9753,-3.9753,0,-3.9173,-3.9194,-3.9291,-3.9341,-3.9355,-3.9417,-3.9459,-3.9512,-3.9529,-3.9604,-3.9622,-3.965,-3.9717,-3.9733,-3.9812,-3.9818,-3.9919,-3.9912,-3.9904,-3.9904,-3.9964,-3.9959,-4.0157,-4.0183,-4.0016,-4.0017,-4.0019,0,-3.9258,-3.9318,-3.9375,-3.9415,-3.9444,-3.9508,-3.9548,-3.9559,-3.9601,-3.9659,-3.9705,-3.9771,-3.9825,-3.9932,-3.9958,-4.0019,-4.0014,-4.0079,-4.0023,-4.0021,-4.0016,-4.0013,-4.0019,-4.009,-4.0092,-4.0093,-4.0095,0,-3.9406,-3.9413,-3.9472,-3.9536,-3.9584,-3.9634,-3.9681,-3.9714,-3.9731,-3.9779,-3.9848,-3.989,-3.9971,-4.0037,-4.0098,-4.0124,-4.0113,-4.0112,-4.013,-4.0131,-4.0124,-4.0129,-3.9934,-4.0108,-4.0106,-4.0105,-4.0105,-4.0104,-3.951,-3.9564,-3.9612,-3.9679,-3.9716,-3.976,-3.9813,-3.9838,-3.9896,-3.9965,-3.9967,-4.0043,-4.0088,-4.0168,-4.0198,-4.0256,-4.0236,-4.0261,-4.0268,-4.0274,-4.028,-4.0114,-4.0267,-4.0267,-4.0266,-4.0266,-4.0266,0,-3.9659,-3.969,-3.9751,-3.9818,-3.987,-3.9856,-3.9907,-3.9952,-4.0019,-4.0063,-4.0116,-4.0196,-4.0259,-4.029,-4.0353,-4.0394,-4.039,-4.041,-4.0408,-4.0414,-4.0294,-4.0273,-4.0412,-4.0412,-4.0412,-4.0412,-4.0412,-4.0412,-3.9742,-3.9833,-3.9846,-3.9953,-3.9983,-4.0058,-4.0089,-4.013,-4.0165,-4.0255,-4.0309,-4.0329,-4.0368,-4.0433,-4.0491,-4.0498,-4.0522,-4.0545,-4.055,-4.0437,-4.0422,-4.0408,-4.0389,-4.055,-4.055,-4.0665,-4.0666,-4.0667]}]]